Погода в Горячинске

Погода в Горячинске : погода сейчас, прогноз погоды и архив. Всё, что Вы хотите узнать о погоде в Горячинске!

Поиск расширенной информации на нашем сайте:

Другие новости

Новости СМИ2

Главная страница сайта

Новости сайта

03.07.2017

Напоминаем, что на нашем специализированном сайте Метеоцентр.Азия вы можете получить высокодетализированные автоматические прогнозы погоды по пунктам России, СНГ и мира в авиационном формате (включающие направление и скорость ветра, видимость, явления погоды, количество и форму облачности, нижнюю и верхнюю границу облачности).

Рекомендуем: Два месяца назад я сделала инъекции ботакса www.entelia74.ru.

Погода в Горячинске - сегодня

Время (UTC), дата Ветер
(°,м/с) 
Видим.   Явления Облачность Т
(°С)
Тd
(°С)
f(%) Тe
(°С)
Pmin
(гПа)
dP
(гПа)
Po
(мм)
O2
(г/м3)
Тmin Tmax R s Состояние
почвы
15 17.10.17 260 (З) н/о    10/10 600 м кучево-дожд. 
[Cb cap]
+4.3 -0.9 69 +4  1023.2  0.5  723  287           
18 17.10.17 230 (ЮЗ) н/о    10/10 600 м кучево-дожд. 
[Cb cap]
+5.3 +1.4 76 +4  1023  723  285           
21 17.10.17 310 (СЗ) н/о    10/10 600 м кучево-дожд. 
[Cb cap]
+4.9 +0.4 73 +6  1023.3  723  286           
00 18.10.17 180 (Ю) 20000 м    10/10 600 м 
[Sc]
+3 +0.1 81 +2  1024.3  0.5  724  288  +1.2      <0.5  мокрый или
старый снег
10-40% 
03 18.10.17 270 (З) 3{10}  20000 м    10/8 600 м кучево-дожд., верхняя 
[Cb cap|Ci sp]
+5.4 +1.9 78 +4  1024.6  0.8  724  286           
06 18.10.17 240 (ЮЗ) 5{10}  20000 м    9/9 600 м кучево-дожд. 
[Cb cap]
+6.7 +1 67 +5  1023.9  -0.4  724  284           
09 18.10.17 230 (ЮЗ) 20000 м    10/10 1000 м 
[Sc]
+6 -0.1 65 +6  1022.7  -1.3  723  285           
12 18.10.17 220 (ЮЗ) н/о    10/0 средняя 
[Ac und]
+4.3 -0.6 70 +5  1022.4  -0.6  722  287    +7.3       
15 18.10.17 160 (Ю) н/о    8/3 1000 м средняя, верхняя 
[Sc|Ac lent|Ci sp]
+2.3 -1 79 +2  1021.9  -0.9  722  288           
18 18.10.17 110 (В) н/о    4/3 1000 м верхняя 
[Sc|Ci sp]
-0.9 -1.9 93 1021.1  -1.5  721  291           
21 18.10.17 140 (ЮВ) н/о    4/0 верхняя 
[Ci sp]
-1.3 -2.1 94 -1  1019.8  -1.2  720  292           
00 19.10.17 140 (ЮВ) 20000 м    10/10 1000 м 
[Sc]
+0 -1.3 91 +1  1019.4  -0.1  720  290  -1.5         
03 19.10.17 330 (СЗ) 20000 м    10/8 1000 м средняя, верхняя 
[Sc|Ac und|Ci sp]
+3.9 -3.4 59 +3  1018.7  0.1  720  286           
06 19.10.17 340 (С) 20000 м    10/3 1000 м средняя, верхняя 
[Sc|Ac trans|Ci sp]
+5 -2.6 58 +4  1018.6  0.2  720  285           
09 19.10.17 300 (СЗ) 20000 м    3/0 верхняя 
[Ci sp]
+4.5 -2.6 60 +4  1019.6  0.8  720  286           
12 19.10.17 120 (ЮВ) н/о    1/0 верхняя 
[Ci sp]
-1.4 -2.8 90 -1  1022.6  1.6  722  293    +5.4       
15 19.10.17 140 (ЮВ) н/о    3/0 верхняя 
[Ci sp]
-2.6 -3.5 94 -2  1024.1  1.1  722  294           
18 19.10.17 140 (ЮВ) н/о    3/0 верхняя 
[Ci sp]
-3 -4.2 91 -3  1025.2  1.1  723  295           
21 19.10.17 120 (ЮВ) н/о    4/0 верхняя 
[Ci sp]
-2.9 -5.1 85 -2  1025.7  0.5  724  295           
00 20.10.17 110 (В) 20000 м    4/3 1000 м верхняя 
[Sc diur, vesp|Ci fib]
-4.1 -5.5 90 -4  1027.1  1.1  724  297  -4.2         
03 20.10.17 070 (В) 20000 м    3/3 1000 м средняя 
[Sc|Ac cast]
+1.9 -6.2 55 +3  1026.7  1.1  725  291           
06 20.10.17 320 (СЗ) 20000 м    1/0 средняя 
[Ac cast]
+2.8 -5.5 54 +1  1025.8  -0.7  725  289           
09 20.10.17 340 (С) 20000 м    1/1 1000 м 
[Sc]
+2.1 -5.3 58 +3  1025  -0.8  724  290           
12 20.10.17 090 (В) н/о    ясно 
-0.9 -7 63 -3  1025.6  -0.2  724  293    +3.3       
15 20.10.17 090 (В) н/о    ясно 
-1.8 -8.1 62 -3  1025.5  -0.3  724  294           
Время (UTC), дата Ветер
(°,м/с) 
Видим.   Явления Облачность Т
(°С)
Тd
(°С)
f(%) Тe
(°С)
Pmin
(гПа)
dP
(гПа)
Po
(мм)
O2
(г/м3)
Тmin Tmax R s Состояние
почвы

Для получения пояснительной информации подведите курсор к названию столбца.

ПОГОДА в Горячинске - архив

Всё, что Вы хотите узнать о погоде в Горячинске - удобно и подробно!

Выберите нужную дату (начиная с 1 января 2015* года) и нажмите кнопку "Найти".
Будут отображены архивные сводки погоды по пункту Горячинск, начиная с указанной даты.


Отображать данные в формате CSV (для использования в таблицах Excel)


Внимание! Наш архив погоды предназначен исключительно для личного некоммерческого использования в познавательных целях. Если Вам необходимы официальные справки о состоянии погоды (для производственных, юридических, коммерческих и т.п. целей), обращайтесь в органы Росгидромета.

*Примечание: данная дата относится к архиву по метеостанциям СССР (Россия, СНГ, Балтия).
Архив по метеостанциям Зарубежной Европы и Азии (кроме Китая) хранится 10 дней, по другим регионам земного шара (Китай, Африка, Америка, Австралия, Океания) - 1 день.

Горячинск - район местоположения метеостанции


Название, широта, долгота, высота метеостанции:
Горячинск 53°ш. 108.3°д. 487 м над ур. моря [Российская Федерация]

Дополнительная информация

В oтличие oт бoльшинства пoгoдных сайтoв мы публикуем пoдрoбную метеoинфoрмацию в детальнoм прoфессиoнальнoм фoрмате.

Характеристики температуры и влажнoсти вoздуха измеряются на высoте 2 м в тени вдали oт зданий и деревьев.
Скoрoсть ветра измеряется на высoте 10 м (на урoвне рoста челoвека скoрoсть ветра ниже в 1.5-2 раза). Если метеoстанция нахoдится в гoрoде или в лесу, тo скoрoсть ветра занижена на 2-4 м/с пo сравнению с oткрытым местoм. Скoрoсть ветра над акватoриями крупных рек и oзёр, а также на вершинах хoлмoв на 2-5 м/с выше, чем в oбычных услoвиях.
Атмoсфернoе давление в разных тoчках местнoсти мoжет значительнo oтличаться oт давления на метеoстанции, в зависимoсти oт услoвий рельефа (при пoдъёме на 10 м давление пoнижается примернo на 1 мм рт.ст.).